Weather History for Storm Lake, IA

Change the Weather History Date:

Thursday, October 20, 2011

  Actual Average Record
Temperature  
Mean Temperature 40 °F -  
Max Temperature 53 °F 59 °F 82 °F (2003)
Min Temperature 27 °F 39 °F 27 °F (2011)
Degree Days  
Heating Degree Days 25    
Moisture  
Dew Point 24 °F    
Average Humidity 60    
Maximum Humidity 85    
Minimum Humidity 27    
Precipitation  
Precipitation 0.00 in - - ()
Sea Level Pressure  
Sea Level Pressure 30.02 in    
Wind  
Wind Speed 9 mph (NW)    
Max Wind Speed 16 mph    
Max Gust Speed 23 mph    
Visibility 10 miles    
Events      
Averages and records for this station are not official NWS values.
T = Trace of Precipitation, MM = Missing Value Source: NWS Daily Summary

Daily Weather History Graph

Daily Weather History Graph

Search for Another Location

Airport:

Trip Planner

Search our weather history database for the weather conditions in past years. The results will help you decide how hot, cold, wet, or windy it might be!

Date:

Astronomy

Oct. 20, 2011 Rise Set
Actual Time 7:39 AM CDT 6:31 PM CDT
Civil Twilight 7:11 AM CDT 6:59 PM CDT
Nautical Twilight 6:38 AM CDT 7:32 PM CDT
Astronomical Twilight 6:05 AM CDT 8:05 PM CDT
Moon 12:16 AM CDT (10/20) 2:49 PM CDT (10/20)
Length of Visible Light 11h 48m
Length of Day
10h 51m
Last Quarter, 44% of the Moon is Illuminated
Oct 20
Last Quarter
Oct 26
New
Nov 2
First Quarter
Nov 10
Full
Nov 18
Last Quarter

Hourly Weather History & Observations

Time (CDT) Temp. Windchill Dew Point Humidity Pressure Visibility Wind Dir Wind Speed Gust Speed Precip Events Conditions
12:35 AM 32.4 °F 26.0 °F 25.3 °F 75% 30.04 in 10.0 mi NW 6.9 mph - N/A   Clear
12:55 AM 33.4 °F 28.1 °F 25.7 °F 73% 30.02 in 10.0 mi NNW 5.8 mph - N/A   Clear
1:15 AM 32.2 °F 25.0 °F 25.0 °F 75% 30.02 in 10.0 mi NNW 8.1 mph - N/A   Clear
1:35 AM 31.8 °F 24.6 °F 25.2 °F 76% 30.02 in 10.0 mi NNW 8.1 mph - N/A   Clear
1:55 AM 31.6 °F 24.4 °F 25.3 °F 78% 30.02 in 10.0 mi NW 8.1 mph - N/A   Clear
2:35 AM 32.4 °F 25.3 °F 25.7 °F 76% 30.03 in 10.0 mi NW 8.1 mph - N/A   Clear
2:55 AM 31.8 °F 24.6 °F 25.2 °F 76% 30.02 in 10.0 mi NW 8.1 mph - N/A   Clear
3:15 AM 31.8 °F 25.4 °F 25.2 °F 76% 30.02 in 10.0 mi NW 6.9 mph - N/A   Clear
3:35 AM 31.8 °F 25.4 °F 25.3 °F 77% 30.02 in 10.0 mi NW 6.9 mph - N/A   Clear
3:55 AM 31.3 °F 23.9 °F 25.0 °F 77% 30.02 in 10.0 mi NW 8.1 mph - N/A   Clear
4:15 AM 31.1 °F 23.1 °F 25.3 °F 79% 30.01 in 10.0 mi NW 9.2 mph - N/A   Clear
4:35 AM 31.5 °F 24.2 °F 25.3 °F 78% 30.01 in 10.0 mi NW 8.1 mph - N/A   Clear
4:55 AM 30.4 °F 22.9 °F 24.8 °F 80% 30.01 in 10.0 mi NW 8.1 mph - N/A   Clear
5:15 AM 29.7 °F 22.8 °F 24.4 °F 81% 30.01 in 10.0 mi NW 6.9 mph - N/A   Clear
5:35 AM 29.8 °F 21.5 °F 25.0 °F 82% 30.01 in 10.0 mi NW 9.2 mph - N/A   Clear
5:55 AM 30.0 °F 21.7 °F 25.2 °F 82% 30.01 in 10.0 mi NW 9.2 mph - N/A   Clear
6:15 AM 30.2 °F 21.9 °F 25.2 °F 82% 30.01 in 10.0 mi NNW 9.2 mph - N/A   Clear
6:35 AM 29.5 °F 22.5 °F 24.6 °F 82% 30.01 in 10.0 mi NW 6.9 mph - N/A   Clear
6:55 AM 28.9 °F 20.4 °F 24.4 °F 83% 30.01 in 10.0 mi NW 9.2 mph - N/A   Clear
7:35 AM 28.0 °F 20.0 °F 24.1 °F 85% 30.01 in 10.0 mi NW 8.1 mph - N/A   Clear
7:55 AM 27.9 °F 19.1 °F 23.9 °F 85% 30.01 in 10.0 mi NW 9.2 mph - N/A   Clear
8:15 AM 28.2 °F 20.2 °F 24.1 °F 84% 30.02 in 10.0 mi WNW 8.1 mph - N/A   Clear
8:35 AM 28.4 °F 21.2 °F 24.1 °F 84% 30.03 in 10.0 mi NW 6.9 mph - N/A   Clear
8:55 AM 30.0 °F 23.2 °F 25.3 °F 83% 30.03 in 10.0 mi NW 6.9 mph - N/A   Clear
9:15 AM 32.4 °F 24.6 °F 27.1 °F 81% 30.03 in 10.0 mi NNW 9.2 mph - N/A   Clear
9:35 AM 35.1 °F 26.9 °F 28.4 °F 77% 30.04 in 10.0 mi NNW 11.5 mph - N/A   Clear
9:55 AM 36.9 °F 30.1 °F 29.1 °F 74% 30.04 in 10.0 mi NNW 9.2 mph - N/A   Clear
10:15 AM 39.0 °F 32.8 °F 30.0 °F 70% 30.04 in 10.0 mi NNW 9.2 mph - N/A   Clear
10:35 AM 41.0 °F 34.7 °F 29.8 °F 64% 30.04 in 10.0 mi NNW 10.4 mph - N/A   Clear
10:55 AM 43.2 °F 36.6 °F 28.9 °F 57% 30.04 in 10.0 mi NW 12.7 mph 17.3 mph N/A   Clear
11:15 AM 44.4 °F 37.5 °F 27.7 °F 52% 30.03 in 10.0 mi North 15.0 mph 23.0 mph N/A   Clear
11:35 AM 45.5 °F 39.2 °F 26.4 °F 47% 30.03 in 10.0 mi NNW 13.8 mph - N/A   Clear
11:55 AM 46.4 °F 40.4 °F 25.5 °F 44% 30.02 in 10.0 mi NNW 13.8 mph - N/A   Clear
12:15 PM 47.5 °F - 24.8 °F 41% 30.02 in 10.0 mi North 16.1 mph 21.9 mph N/A   Clear
12:35 PM 48.0 °F - 23.9 °F 39% 30.02 in 10.0 mi North 13.8 mph - N/A   Clear
1:35 PM 49.8 °F - 23.4 °F 36% 30.00 in 10.0 mi NNW 13.8 mph 19.6 mph N/A   Clear
1:55 PM 50.5 °F - 22.5 °F 33% 29.99 in 10.0 mi NNW 12.7 mph 18.4 mph N/A   Clear
2:15 PM 51.3 °F - 22.3 °F 32% 29.99 in 10.0 mi NW 15.0 mph 19.6 mph N/A   Clear
2:35 PM 51.6 °F - 22.8 °F 32% 29.98 in 10.0 mi NW 15.0 mph 19.6 mph N/A   Clear
3:15 PM 52.3 °F - 20.8 °F 29% 29.98 in 10.0 mi NNW 10.4 mph - N/A   Clear
3:35 PM 52.9 °F - 20.1 °F 28% 29.98 in 10.0 mi WNW 12.7 mph 16.1 mph N/A   Clear
3:55 PM 53.1 °F - 19.6 °F 27% 29.99 in 10.0 mi NW 9.2 mph 16.1 mph N/A   Clear
4:15 PM 53.1 °F - 19.6 °F 27% 29.99 in 10.0 mi NW 9.2 mph - N/A   Clear
4:35 PM 52.9 °F - 19.9 °F 28% 29.99 in 10.0 mi NW 10.4 mph 17.3 mph N/A   Clear
4:55 PM 52.7 °F - 21.7 °F 30% 29.99 in 10.0 mi NW 11.5 mph 18.4 mph N/A   Clear
5:15 PM 52.0 °F - 21.7 °F 31% 29.99 in 10.0 mi WNW 11.5 mph 18.4 mph N/A   Clear
5:35 PM 51.3 °F - 21.7 °F 31% 29.99 in 10.0 mi NW 10.4 mph - N/A   Clear
5:55 PM 50.5 °F - 21.9 °F 33% 29.99 in 10.0 mi WNW 8.1 mph - N/A   Clear
6:35 PM 46.8 °F - 22.1 °F 38% 30.00 in 10.0 mi WNW 8.1 mph - N/A   Clear
7:15 PM 44.1 °F 39.5 °F 22.8 °F 43% 30.01 in 10.0 mi WNW 8.1 mph - N/A   Clear
7:55 PM 42.8 °F 38.6 °F 23.4 °F 46% 30.01 in 10.0 mi WNW 6.9 mph - N/A   Clear
8:15 PM 40.3 °F 35.5 °F 22.8 °F 50% 30.00 in 10.0 mi West 6.9 mph - N/A   Clear
8:35 PM 37.6 °F 32.3 °F 22.5 °F 54% 30.01 in 10.0 mi West 6.9 mph - N/A   Clear
8:55 PM 37.6 °F 31.6 °F 22.6 °F 55% 30.01 in 10.0 mi West 8.1 mph - N/A   Clear
9:15 PM 37.6 °F 31.6 °F 23.0 °F 56% 30.02 in 10.0 mi West 8.1 mph - N/A   Clear
9:35 PM 36.5 °F 30.3 °F 22.6 °F 57% 30.02 in 10.0 mi West 8.1 mph - N/A   Clear
9:55 PM 35.1 °F 28.6 °F 22.5 °F 60% 30.04 in 10.0 mi West 8.1 mph - N/A   Clear
10:15 PM 34.5 °F 27.3 °F 22.5 °F 61% 30.04 in 10.0 mi West 9.2 mph - N/A   Clear
10:35 PM 35.2 °F 28.1 °F 22.6 °F 60% 30.04 in 10.0 mi West 9.2 mph - N/A   Clear
10:55 PM 35.6 °F 28.6 °F 23.0 °F 60% 30.04 in 10.0 mi West 9.2 mph - N/A   Clear
11:15 PM 34.9 °F 27.7 °F 22.8 °F 61% 30.05 in 10.0 mi West 9.2 mph - N/A   Clear
11:35 PM 34.5 °F 27.3 °F 22.6 °F 62% 30.05 in 10.0 mi West 9.2 mph - N/A   Clear
11:55 PM 34.7 °F 27.5 °F 22.8 °F 62% 30.05 in 10.0 mi West 9.2 mph - N/A   Clear